Weather Roundup
Issued by NWS Chicago, IL

Home | Current Version | Previous Version | Text Only | Print | Product List | Glossary Off
Versions: 1 2 3 4 5 6 7 8 9 10 11 12 13 14 15 16 17 18 19 20 21 22 23 24 25 26 27 28 29 30 31 32 33 34 35 36 37 38 39 40 41 42 43 44 45 46 47 48 49 50

868
NZUS59 KLOT 011703
HRRLOT

CHICAGO AREA WEATHER ROUNDUP
NATIONAL WEATHER SERVICE CHICAGO/ROMEOVILLE IL
1200 PM CDT SUN MAY 01 2016

NOTE: "FAIR" INDICATES FEW OR NO CLOUDS BELOW 12,000 FEET WITH NO
SIGNIFICANT WEATHER AND/OR OBSTRUCTIONS TO VISIBILITY.

* THESE STATIONS ARE NOT UNDER NWS QUALITY CONTROL. THEY ALSO MAY NOT
  REPORT WEATHER SUCH AS PRECIPITATION OR FOG.

ILZ005-006-012>014-019>023-011800-
NORTHEAST ILLINOIS

CITY           SKY/WX    TMP DP  RH WIND       PRES   REMARKS
OHARE          CLOUDY    45  44  97 NE14      29.99F FOG
MIDWAY         CLOUDY    47  44  90 N13       29.99F FOG
AURORA         CLOUDY    49  46  90 NE12      30.00S
LANSING*       CLOUDY    48  47  95 NE6       29.99S FOG
WAUKEGAN       CLOUDY    45  43  93 NE14G21   30.01F
DUPAGE AIRPORT CLOUDY    47  44  90 NE13      29.99F FOG
WHEELING       CLOUDY    45  43  93 NE12      30.02S
MORRIS*        CLOUDY    49  46  89 NE3       29.98S
$$

WIZ051-052-058>065-066-070>072-011800-
SOUTHEAST WISCONSIN

CITY           SKY/WX    TMP DP  RH WIND       PRES   REMARKS
MILWAUKEE      CLOUDY    47  39  74 NE14G23   30.05R
KENOSHA*       CLOUDY    46  42  86 NE13      30.03S
RACINE*        CLOUDY    45  38  76 N14       30.05S
BURLINGTON     CLOUDY    49  43  79 NE15      30.02F
WAUKESHA       CLOUDY    48  37  66 NE15G25   30.05S
$$

INZ001>003-010>013-019-020-011800-
NORTHWEST INDIANA

CITY           SKY/WX    TMP DP  RH WIND       PRES   REMARKS
GARY*          CLOUDY    48  48 100 NE12      29.99  FOG
MICHIGAN CITY* NOT AVBL
RENSSELAER*    NOT AVBL
VALPARAISO     CLOUDY    56  50  80 N6        29.97F
$$

LMZ740>746-011800-
SOUTHERN LAKE MICHIGAN

STATION/POSITION TIME  SKY/WX   TEMP WIND        PRES    VSBY
                                AIR  DIR/SP/G
                 (UTC)          (F)  (DEG/KT/KT) (MB)    (MI)
HARRISON CRIB    1600            44   10/ 14/ 16   N/A
BURNHAM HARBOR   1700            44   10/ 10/ 13   N/A
CALUMET HARBOR   1600            44  350/  8/ 12 1015.3R
BURNS HARBOR     1614            45   40/  9/ 15 1016.3R
MICHIGAN CITY    1600            45   10/ 10/ 11   N/A
$$

ABBREVIATIONS USED IN REMARKS
   TC - TEMPERATURE IN CELSIUS
  WCI - WIND CHILL INDEX
   HX - HEAT INDEX
  VSB - VISIBILITY
$$




USA.gov is the U.S. government's official web portal to all federal, state and local government web resources and services.